Regional Weather Roundup
Issued by NWS

Home | Current Version | Previous Version | Text Only | Print | Product List | Glossary On
Versions: 1 2 3 4 5 6 7 8 9 10 11 12 13 14 15 16 17 18 19 20 21 22 23 24 25 26 27 28 29 30 31 32 33 34 35 36 37 38 39 40 41 42 43 44 45 46 47 48 49 50
000
ASUS45 KTFX 251704
RWRMT
MONTANA HOURLY WEATHER ROUNDUP
NATIONAL WEATHER SERVICE GREAT FALLS MT
1104 AM MDT FRI JUL 25 2014

NOTE: "FAIR" INDICATES FEW OR NO CLOUDS BELOW 12000 FEET WITH NO
SIGNIFICANT WEATHER AND/OR OBSTRUCTIONS TO VISIBILITY.

* THESE STATIONS ARE NOT UNDER NWS QUALITY CONTROL. THEY DO NOT
   REPORT WEATHER SUCH AS PRECIPITATION OR FOG.

MTZ001>007-043-251800-
WEST OF THE DIVIDE
CITY           SKY/WX    TMP DP  RH WIND       PRES   REMARKS
KALISPELL      PTSUNNY   66  43  43 VRB7      30.02F
MISSOULA       SUNNY     64  39  40 N8        30.11F
BUTTE          SUNNY     63  34  34 NE6       30.12F
MULLAN PASS    PTSUNNY   48  43  83 VRB6      30.17S
* ESSEX        N/A       58  41  53 NE3        N/A
* LINCOLN      N/A       61  39  44 SW7G19     N/A
* LOOKOUT PASS N/A       54  43  67 N6G11      N/A
* POLSON       N/A       64  44  48 S3G11      N/A
* RONAN APT    SUNNY     66  45  47 SE9        N/A
* SEELEY LAKE  N/A       60  38  44 W10G25     N/A
* THOMP F APT  SUNNY     63  24  23 S6         N/A
$$

MTZ008-052>055-251800-
SOUTHWEST MONTANA
CITY           SKY/WX    TMP DP  RH WIND       PRES   REMARKS
BOZEMAN        SUNNY     64  36  35 N6        30.08F
DILLON         SUNNY     66  36  33 VRB5      30.10F
W YELLOWSTONE  SUNNY     61  25  25 S15G21    30.19S
* THREE FORKS  SUNNY     66  46  49 N/A        N/A
* BOULDER HILL N/A       60  32  35 S18G24     N/A
* MONIDA PASS  N/A       61  22  22 E6         N/A
* RAYNOLDS PAS N/A       58  39  49 SE19       N/A
* WHITEHALL    N/A       70  40  34 SW7        N/A
* WISE RIVER   N/A       62  39  43 W3         N/A
$$

MTZ009>010-012-014-046-048-049-054-251800-
EAST SLOPES AND CENTRAL MONTANA
CITY           SKY/WX    TMP DP  RH WIND       PRES   REMARKS
CUT BANK       SUNNY    N/A N/A N/A N/A       29.88R
GREAT FALLS    SUNNY     70  36  29 W17G29    29.94F
HELENA         SUNNY     68  36  31 W18G26    30.05F
MALMSTROM AFB  SUNNY     68  34  28 SW29G40   29.94F
* CONRAD       SUNNY     66  43  43 SW15G23    N/A
* DEARBORN     N/A       67  34  29 S22G30     N/A
* EAST GLACIER N/A       58  36  44 W26G32     N/A
* MONARCH      N/A       60  29  31 W19G28     N/A
* SAINT MARY   N/A       57  38  49 SW13G25    N/A
* SWEET GRASS  N/A       65  36  34 W29G38     N/A
$$

MTZ011-013-016-021-035-040-045-047-050-051-251800-
NORTH CENTRAL MONTANA
CITY           SKY/WX    TMP DP  RH WIND       PRES   REMARKS
HAVRE          SUNNY     73  37  27 W31G40    29.82F
LEWISTOWN      SUNNY     73  28  19 SW26G35   29.94F
* CHESTER      N/A       67  35  31 W21G35     N/A
* DENTON       N/A       72  35  26 W22G35     N/A
* GEYSER       N/A       69  34  28 W29G37     N/A
* JUDITH GAP   N/A       66  37  34 SW23G29    N/A
* LOMA         N/A       70  36  29 SW24G34    N/A
$$

MTZ017>020-022>027-061-062-251800-
NORTHEAST MONTANA
CITY           SKY/WX    TMP DP  RH WIND       PRES   REMARKS
GLASGOW        SUNNY     75  36  24 W18G31    29.82F
GLENDIVE       SUNNY     75  43  32 W16G22    29.90F
SIDNEY         SUNNY    N/A N/A N/A SW15G22   29.87F
WOLF POINT     SUNNY     77  41  28 SW16G25   29.83F
* BEAVER HILL  N/A       72  46  40 S8G14      N/A
* CIRCLE       N/A       73  41  32 W6G16      N/A
* LINDSAY DVD  N/A       71  42  35 SW11       N/A
* NAVAJO       N/A       69  44  41 W26G34     N/A
$$

MTZ028>042-056>058-251800-
SOUTHCENTRAL AND SOUTHEAST MONTANA
CITY           SKY/WX    TMP DP  RH WIND       PRES   REMARKS
BAKER          SUNNY     75  37  25 VRB5      29.95F
BILLINGS       SUNNY     72  36  27 VRB5      29.97F
LIVINGSTON     SUNNY     72  34  25 W15G24    30.02F
MILES CITY     SUNNY     79  37  22 SW20      29.90F
* LAUREL APT   SUNNY     73  37  27 S5         N/A
* ROUNDUP APT  SUNNY     73  30  20 SW20G29    N/A
* ALZADA       N/A       72  38  29 NE3        N/A
* HYSHAM       N/A       73  38  28 W9         N/A
* LAME DEER    N/A       71  36  28 W4G10      N/A
* REED POINT   N/A       74  38  27 W11G16     N/A
* ROSCOE HILL  N/A       70  35  28 NE9G14     N/A
$$

REGIONAL REPORTS...DAKOTAS
CITY           SKY/WX    TMP DP  RH WIND       PRES   REMARKS
WILLISTON      SUNNY     73  43  34 SW20      29.85F
DICKINSON      SUNNY     72  45  38 W12       29.91F
CROSBY         SUNNY     68  52  57 SW15      29.82F
TIOGA          SUNNY     68  48  49 W10G20    29.88F
WATFORD CITY   SUNNY     72  45  38 W10       29.86F
BISMARCK       SUNNY     79  46  31 NW14G21   29.87R
GRAND FORKS    PTSUNNY   73  66  79 SW6       29.74F
FARGO          CLOUDY    72  64  76 CALM      29.77S
BUFFALO SD     SUNNY     73  39  29 CALM      29.90F
RAPID CITY     SUNNY     73  43  34 N7        30.00S
$$

REGIONAL REPORTS...WYOMING/IDAHO/WASHINGTON
CITY           SKY/WX    TMP DP  RH WIND       PRES   REMARKS
GILLETTE       SUNNY     73  36  26 SE8       30.00F
SHERIDAN       SUNNY     75  52  45 S6        29.97F
YELLOWSTONE LA SUNNY     63  25  24 VRB6      30.25F
SALMON         SUNNY     63  36  37 CALM      30.09F
MULLAN PASS    PTSUNNY   48  43  83 VRB6      30.17S
SAND POINT     SUNNY     63  46  54 SW7       30.09S
SPOKANE        SUNNY     63  43  48 S13       30.11S
$$

REGIONAL REPORTS...ALBERTA
CITY           SKY/WX    TMP DP  RH WIND       PRES   REMARKS
EDMONTON       LGT RAIN  55  54  96 NW29G45   29.55R VSB 2 1/2

$$



USA.gov is the U.S. government's official web portal to all federal, state and local government web resources and services.